Location: Recife
(8.0585°S, 34.8848°W)
Time: 21:11:13
(UTC-03:00)

Vanguard 3 - Pass Details

Date: 23 April 2026
Orbit: 507 x 3205 km, 33.4° (Epoch: 12 May)

Event Time Altitude Azimuth Distance (km) Brightness Sun altitude
Rises 06:05:04 0° 285° (WNW) 3,739 10.0 9.6°
Reaches altitude 10° 06:07:19 10° 279° (W) 3,048 9.6 10.1°
Maximum altitude 06:14:52 50° 205° (SSW) 2,046 9.1 12.0°
Drops below altitude 10° 06:28:08 10° 134° (SE) 5,194 11.8 15.1°
Sets 06:33:20 0° 129° (SE) 6,577 12.3 16.4°
